This is the latest recevied weather packets stored in our database for station/object W8RSN-13. If no packets are shown the sender has not sent any weather packets the latest 1 day(s).
| Time | Temp. | Humidity | Pressure | Rain* | Wind** | Luminosity | Snow |
|---|---|---|---|---|---|---|---|
| 1778032172 | - | - | 1016 hPa | 0 mm | 0.45 m/s, 194° | - | - |
| 1778031871 | - | - | 1015.8 hPa | 0 mm | 1.34 m/s, 195° | - | - |
| 1778031570 | - | - | 1015.7 hPa | 0 mm | 1.79 m/s, 201° | - | - |
| 1778031269 | - | - | 1015.3 hPa | 0 mm | 0.45 m/s, 175° | - | - |
| 1778030968 | - | - | 1015.5 hPa | 0 mm | 0.89 m/s, 203° | - | - |
| 1778030667 | - | - | 1015.5 hPa | 0 mm | 1.34 m/s, 226° | - | - |
| 1778030367 | - | - | 1015.6 hPa | 0 mm | 1.79 m/s, 232° | - | - |
| 1778030066 | - | - | 1015.3 hPa | 0 mm | 0.89 m/s, 218° | - | - |
| 1778029765 | - | - | 1015.5 hPa | 0 mm | 0 m/s | - | - |
| 1778029464 | - | - | 1015.4 hPa | 0 mm | 0.89 m/s, 198° | - | - |
| 1778029163 | - | - | 1015.6 hPa | 0 mm | 0.45 m/s, 171° | - | - |
| 1778028862 | - | - | 1015.4 hPa | 0 mm | 0.89 m/s, 217° | - | - |
| 1778028561 | - | - | 1015.5 hPa | 0 mm | 0.89 m/s, 212° | - | - |
| 1778028260 | - | - | 1015.6 hPa | 0 mm | 1.34 m/s, 190° | - | - |
| 1778027959 | - | - | 1015.3 hPa | 0 mm | 2.68 m/s, 222° | - | - |
| 1778027658 | - | - | 1015.4 hPa | 0 mm | 3.58 m/s, 207° | - | - |
| 1778027358 | - | - | 1015.4 hPa | 0 mm | 1.34 m/s, 207° | - | - |
| 1778027056 | - | - | 1015.3 hPa | 0 mm | 1.79 m/s, 234° | - | - |
| 1778026756 | - | - | 1015.1 hPa | 0 mm | 0.89 m/s, 200° | - | - |
| 1778026475 | - | - | 1015.2 hPa | 0 mm | 2.24 m/s, 206° | - | - |
| 1778026174 | - | - | 1015.2 hPa | 0 mm | 2.24 m/s, 221° | - | - |
| 1778025873 | - | - | 1015.4 hPa | 0 mm | 2.24 m/s, 227° | - | - |
| 1778025572 | - | - | 1015.1 hPa | 0 mm | 2.68 m/s, 205° | - | - |
| 1778025271 | - | - | 1015.3 hPa | 0 mm | 3.13 m/s, 232° | - | - |
| 1778024970 | - | - | 1015.1 hPa | 0 mm | 3.13 m/s, 225° | - | - |
* Rain latest hour (hover to see other rain measurements)
** Current wind speed in m/s (hover to see current wind gust speed)